Aurora, IL

7:45 AM CDT on October 20, 2017 (GMT -0500)
Aurora Municipal

Weather History for KARR - January, 2013

Change the Weather History Date:

Saturday, January 5, 2013

  Actual Average Record
Temperature  
Mean Temperature 26 °F 21 °F  
Max Temperature 37 °F 29 °F 50 °F (1998)
Min Temperature 15 °F 14 °F -25 °F (1999)
Degree Days  
Heating Degree Days 39 44  
Month to date heating degree days 222 218  
Since 1 July heating degree days 2675 2867  
Cooling Degree Days 0 0  
Month to date cooling degree days 0 0  
Year to date cooling degree days 0 0  
Moisture  
Dew Point 27 °F    
Average Humidity 80    
Maximum Humidity 96    
Minimum Humidity 64    
Precipitation  
Precipitation 0.01 in 0.04 in 0.10 in (2003)
Month to date precipitation 0.01 0.21  
Year to date precipitation 0.01 0.21  
Sea Level Pressure  
Sea Level Pressure 30.11 in    
Wind  
Wind Speed 10 mph (SSW)    
Max Wind Speed 20 mph    
Max Gust Speed 26 mph    
Visibility 7 miles    
Events Snow    
T = Trace of Precipitation, MM = Missing Value Source: NWS Daily Summary

Daily Weather History Graph

Daily Weather History Graph

Search for Another Location

Airport or City:

Trip Planner

Search our weather history database for the weather conditions in past years. The results will help you decide how hot, cold, wet, or windy it might be!

Date:

Astronomy

Jan. 05, 2013 Rise Set
Actual Time 7:21 AM CST 4:37 PM CST
Civil Twilight 6:50 AM CST 5:09 PM CST
Nautical Twilight 6:15 AM CST 5:43 PM CST
Astronomical Twilight 5:41 AM CST 6:17 PM CST
Moon 12:24 AM CST (1/5) 11:30 AM CST (1/5)
Length of Visible Light 10h 19m
Length of Day
9h 16m
Last Quarter, 44% of the Moon is Illuminated
Jan 5
Last Quarter
Jan 11
New
Jan 18
First Quarter
Jan 26
Full
Feb 3
Last Quarter

Hourly Weather History & Observations

Time (CST) Temp. Windchill Dew Point Humidity Pressure Visibility Wind Dir Wind Speed Gust Speed Precip Events Conditions
12:52 AM 23.0 °F 13.9 °F 19.9 °F 88% 30.25 in 8.0 mi SSW 8.1 mph - N/A   Clear
1:52 AM 21.9 °F 14.5 °F 19.0 °F 89% 30.27 in 8.0 mi SW 5.8 mph - N/A   Clear
2:52 AM 21.9 °F 15.7 °F 19.0 °F 89% 30.27 in 8.0 mi SW 4.6 mph - N/A   Clear
3:52 AM 17.1 °F - 15.1 °F 92% 30.24 in 6.0 mi Calm Calm - N/A   Clear
4:52 AM 16.0 °F - 12.9 °F 88% 30.23 in 6.0 mi Calm Calm - N/A   Clear
5:52 AM 19.0 °F 11.1 °F 16.0 °F 88% 30.25 in 6.0 mi South 5.8 mph - N/A   Clear
6:52 AM 18.0 °F 12.7 °F 16.0 °F 92% 30.22 in 7.0 mi SSE 3.5 mph - N/A   Clear
7:52 AM 17.1 °F 11.7 °F 15.1 °F 92% 30.22 in 5.0 mi SSE 3.5 mph - N/A   Clear
8:52 AM 24.1 °F 15.2 °F 19.9 °F 84% 30.22 in 7.0 mi South 8.1 mph - N/A   Haze
9:52 AM 28.0 °F 20.0 °F 21.9 °F 78% 30.22 in 10.0 mi SSW 8.1 mph - N/A   Haze
10:52 AM 34.0 °F 25.5 °F 25.0 °F 70% 30.19 in 10.0 mi SSW 11.5 mph - N/A   Haze
11:52 AM 36.0 °F 26.7 °F 25.0 °F 64% 30.15 in 10.0 mi SSW 15.0 mph 19.6 mph N/A   Overcast
12:52 PM 36.0 °F 27.5 °F 26.1 °F 67% 30.12 in 10.0 mi SW 12.7 mph - N/A   Overcast
1:49 PM 33.8 °F 23.2 °F 28.4 °F 81% 30.08 in 2.5 mi SW 17.3 mph - 0.00 in Snow Light Snow
1:52 PM 34.0 °F 23.4 °F 28.9 °F 82% 30.11 in 2.0 mi SW 17.3 mph - 0.00 in Snow Light Snow
1:57 PM 33.8 °F 23.5 °F 30.2 °F 87% 30.08 in 1.5 mi SW 16.1 mph - 0.00 in Snow Light Snow
2:30 PM 33.8 °F 25.8 °F 30.2 °F 87% 30.07 in 1.2 mi SSW 10.4 mph - 0.00 in Snow Light Snow
2:49 PM 33.8 °F 26.4 °F 32.0 °F 93% 30.06 in 3.0 mi South 9.2 mph - 0.01 in Snow Light Snow
2:52 PM 33.1 °F 26.9 °F 32.0 °F 96% 30.08 in 4.0 mi South 6.9 mph - 0.01 in   Overcast
3:11 PM 33.8 °F 26.4 °F 32.0 °F 93% 30.05 in 5.0 mi South 9.2 mph - 0.00 in   Overcast
3:52 PM 33.1 °F 26.1 °F 32.0 °F 96% 30.07 in 5.0 mi South 8.1 mph - 0.00 in   Overcast
4:26 PM 33.8 °F 26.4 °F 32.0 °F 93% 30.03 in 5.0 mi South 9.2 mph - N/A   Overcast
4:52 PM 34.0 °F 25.5 °F 32.0 °F 92% 30.06 in 7.0 mi South 11.5 mph - N/A   Overcast
5:52 PM 34.0 °F 24.6 °F 32.0 °F 92% 30.05 in 8.0 mi SSW 13.8 mph - N/A   Overcast
6:52 PM 34.0 °F 23.0 °F 30.9 °F 89% 30.04 in 10.0 mi SSW 18.4 mph - 0.01 in   Overcast
7:27 PM 33.8 °F 23.5 °F 30.2 °F 87% 30.02 in 10.0 mi SSW 16.1 mph 21.9 mph N/A   Overcast
7:52 PM 34.0 °F 24.6 °F 30.9 °F 89% 30.04 in 9.0 mi SSW 13.8 mph 23.0 mph N/A   Overcast
8:47 PM 33.8 °F 23.5 °F 32.0 °F 93% 30.00 in 7.0 mi SSW 16.1 mph 21.9 mph N/A   Overcast
8:52 PM 34.0 °F 24.6 °F 32.0 °F 92% 30.03 in 7.0 mi SSW 13.8 mph 21.9 mph N/A   Overcast
9:52 PM 34.0 °F 24.6 °F 32.0 °F 92% 30.01 in 7.0 mi SSW 13.8 mph 23.0 mph N/A   Overcast
10:33 PM 35.6 °F 26.6 °F 32.0 °F 87% 29.97 in 7.0 mi SW 13.8 mph 20.7 mph N/A   Overcast
10:52 PM 35.1 °F 25.9 °F 32.0 °F 89% 29.99 in 7.0 mi SSW 13.8 mph - N/A   Overcast
11:52 PM 34.0 °F 26.0 °F 32.0 °F 92% 29.96 in 7.0 mi SSW 10.4 mph - N/A   Overcast